Wind_Speed
45 46 46 46 45 45 44 44 45 45 46 46 46 46 46 45 44 44 44 43 42 42 41 40 40 39 40 40 40 39 38 38 36 35 35 35 35 35 34 34 33 33 34
44 45 46 46 45 45 44 44 44 45 44 44 45 45 46 45 45 45 45 44 44 43 43 41 40 40 41 41 41 40 40 39 38 37 36 35 35 35 35 36 35 35 36
44 45 46 46 46 45 45 45 45 45 45 45 45 45 46 46 46 45 45 45 45 44 45 43 42 41 41 42 42 40 40 39 39 38 37 36 36 36 36 37 37 37 37
43 44 45 46 46 45 45 45 44 45 46 46 45 45 45 45 44 45 45 45 45 45 45 44 43 43 43 42 42 41 41 40 40 40 39 38 38 38 38 38 39 38 38
42 43 43 45 45 45 45 45 45 45 46 46 46 46 45 45 45 45 45 45 45 46 45 45 44 44 44 43 43 42 42 41 41 40 40 40 40 40 39 39 40 40 40
41 42 42 43 43 43 43 44 45 45 46 46 46 45 45 45 45 45 45 45 44 45 45 45 45 45 45 45 45 45 44 44 43 42 42 41 42 42 41 41 41 41 41
40 41 41 42 42 42 42 43 44 45 45 45 45 45 45 45 45 45 45 44 44 44 44 45 45 45 45 45 46 46 45 45 44 43 43 42 42 42 43 43 43 43 42
38 40 41 42 41 41 41 43 43 44 44 44 44 44 44 45 44 44 43 43 42 42 43 44 44 44 44 45 46 46 46 45 45 44 43 43 43 43 43 43 43 43 43
34 36 39 40 41 40 40 40 42 42 42 43 43 42 42 42 42 42 42 42 42 42 43 43 44 44 43 43 45 46 45 45 45 44 43 42 43 44 44 44 44 44 45
31 33 36 39 40 40 41 41 40 41 41 42 42 42 42 42 42 42 41 42 42 42 42 42 43 43 43 43 44 45 44 44 43 43 43 42 43 45 45 46 45 45 46
28 30 33 36 37 38 40 40 39 41 41 41 42 41 41 41 42 42 42 42 41 41 41 42 42 42 42 43 43 43 42 42 43 44 44 44 44 45 46 46 47 46 47
27 29 31 33 34 36 38 40 39 40 41 41 42 41 41 42 42 42 42 42 41 40 39 40 40 40 41 41 42 42 42 43 44 44 44 45 45 45 47 47 48 48 48
25 28 30 31 33 34 36 38 39 39 39 39 41 41 41 41 41 41 42 42 41 41 40 39 39 40 40 40 42 42 42 43 44 45 45 45 45 46 46 47 48 49 48
25 27 28 30 33 34 35 36 37 38 39 39 40 40 41 41 40 39 40 41 41 41 41 40 40 40 40 40 41 41 42 42 43 45 45 45 45 46 45 46 46 46 47
23 26 28 29 31 32 33 34 37 38 38 38 38 38 39 40 40 40 40 40 41 42 42 42 42 41 41 41 41 41 42 42 42 44 45 46 46 46 45 45 45 46 46
23 25 26 28 29 30 31 32 34 35 37 37 37 38 39 39 40 40 40 40 41 42 43 42 43 42 42 41 41 42 42 42 43 44 45 46 46 46 45 46 45 45 45
24 25 26 27 28 29 29 30 33 34 36 36 37 38 39 39 40 40 40 41 42 42 42 42 42 42 42 41 42 42 43 43 42 43 44 44 43 44 45 45 44 44 43
26 26 25 25 26 27 29 29 31 32 33 34 35 37 39 39 40 40 41 42 42 43 42 43 42 42 41 41 42 42 42 42 42 42 42 42 42 43 43 43 43 43 42
24 25 25 24 25 27 28 28 29 30 31 32 33 35 37 38 40 40 41 42 42 42 42 41 42 41 41 41 42 41 42 42 41 40 40 41 41 42 42 41 42 42 41
23 24 25 25 25 26 26 27 28 29 30 31 32 33 34 35 35 37 38 39 40 40 39 40 41 42 41 41 41 41 41 40 40 39 40 40 40 40 39 39 39 39 38
22 23 24 25 25 26 27 27 26 26 27 28 29 31 32 33 34 35 37 38 38 39 40 40 40 40 40 40 40 40 39 38 37 37 37 37 37 37 37 37 37 37 37
23 23 24 24 24 26 26 26 25 25 25 26 27 28 30 31 32 33 35 36 37 38 38 38 38 38 38 38 38 38 36 36 35 35 36 36 36 36 36 36 36 36 36
25 25 25 25 26 26 26 26 26 26 27 27 26 27 29 30 31 32 34 35 36 36 36 37 37 37 37 37 36 35 35 35 35 35 36 35 35 35 35 35 35 35 36
25 26 25 25 26 27 27 27 26 27 27 27 27 27 28 29 30 32 32 33 34 35 35 35 36 36 36 35 34 34 34 34 34 34 33 33 33 33 33 33 34 34 34
24 24 24 24 24 24 25 26 26 26 26 25 26 27 27 29 29 30 30 31 32 33 33 34 34 34 33 33 33 33 33 33 33 32 32 31 32 32 32 33 33 33 33
22 22 21 22 22 23 24 25 25 25 25 25 26 27 27 28 28 29 29 30 30 31 31 31 32 32 32 32 33 33 32 32 32 31 30 30 31 31 31 32 32 32 31
Wind_Direction
251 249 249 247 246 246 246 246 246 248 248 247 247 247 247 248 247 248 249 250 252 253 254 255 254 254 254 253 253 254 256 256 258 259 260 261 263 264 265 266 267 271 273
251 249 248 246 247 246 246 246 246 246 247 246 246 247 247 248 248 248 249 250 251 253 253 255 255 254 253 254 254 254 255 256 258 259 261 262 263 265 266 266 267 270 273
251 250 248 247 247 246 246 246 247 247 247 246 246 247 246 247 247 248 249 249 250 252 252 253 254 253 253 254 254 253 254 255 257 258 259 262 264 266 267 268 268 270 273
251 250 249 247 246 246 245 244 246 247 247 246 246 246 247 247 248 249 248 249 250 251 250 251 252 252 252 253 253 253 253 254 256 257 259 261 264 266 267 268 270 272 274
252 250 249 247 245 245 244 244 245 246 246 245 245 246 247 248 248 248 248 250 251 250 250 251 252 252 251 252 252 253 254 255 256 257 259 262 263 265 267 269 271 273 275
252 250 248 246 245 244 243 244 244 246 246 244 245 245 247 247 248 248 248 249 251 251 251 251 251 252 251 251 252 252 253 254 255 257 259 262 264 265 267 270 271 273 275
253 249 247 245 244 242 242 244 244 245 245 245 244 245 245 246 247 248 248 249 250 251 252 251 251 252 251 251 252 252 253 254 256 257 259 261 264 266 268 270 272 273 275
254 250 247 245 243 242 243 243 244 245 245 245 244 244 244 245 246 247 247 248 249 250 251 251 251 251 252 252 252 252 253 254 255 257 259 261 265 266 268 271 273 274 275
254 250 246 244 242 242 243 244 245 245 244 244 242 243 244 244 245 245 245 247 249 250 252 252 252 252 253 253 253 253 254 255 256 256 258 261 264 266 268 270 273 276 276
254 250 245 243 243 243 243 244 246 244 243 241 240 243 244 244 244 245 245 247 249 250 252 253 254 253 253 253 254 254 254 255 255 256 258 261 264 266 268 270 273 276 277
254 250 246 244 245 246 244 245 246 245 243 242 241 242 242 243 244 245 245 246 248 250 252 253 254 254 254 255 255 256 256 255 256 258 259 261 264 266 268 269 272 276 277
253 249 247 246 247 247 245 245 245 245 244 243 242 243 242 244 245 245 245 245 247 249 251 253 253 254 256 257 257 256 256 257 257 258 260 261 264 266 268 269 271 274 277
257 251 249 249 249 249 248 247 246 245 244 243 243 243 244 246 245 245 245 244 246 248 251 253 254 255 257 258 257 256 257 258 257 259 261 263 264 267 269 270 272 274 276
259 255 252 251 251 251 251 249 247 246 246 245 244 244 243 244 245 245 246 246 248 250 251 252 254 255 257 258 257 258 259 259 260 261 262 264 266 268 270 271 273 275 276
260 256 255 254 254 254 253 252 250 248 246 245 245 243 243 244 245 245 246 247 248 249 251 252 254 256 258 259 259 259 261 261 262 264 265 265 266 269 270 273 274 275 276
260 257 257 257 255 254 254 253 250 246 246 245 244 243 244 245 246 245 247 248 249 250 251 253 255 256 258 259 259 260 262 262 264 265 266 267 267 268 270 273 275 277 278
262 260 259 259 258 255 255 253 251 248 246 246 244 243 244 246 246 246 248 250 250 251 252 254 255 257 259 260 260 261 263 264 264 265 267 268 268 269 272 273 276 278 279
267 264 262 260 258 258 256 255 253 249 246 246 245 245 246 248 249 249 249 249 249 251 253 254 255 257 258 259 259 261 262 263 265 267 268 268 269 271 272 273 275 278 278
266 264 263 263 262 262 261 259 253 250 248 248 249 248 247 247 248 248 248 248 249 251 252 253 255 256 257 259 261 261 262 263 265 267 267 270 271 271 272 273 275 276 277
267 265 262 261 263 262 260 260 257 254 251 251 251 251 250 248 248 248 248 248 248 249 251 254 255 256 258 258 260 262 264 265 265 266 268 270 272 272 271 272 274 275 276
268 266 264 263 263 262 261 260 258 255 254 254 253 253 253 251 250 250 249 250 250 252 253 255 257 258 259 260 261 263 264 264 265 267 269 270 271 270 270 271 272 273 275
269 268 267 265 265 263 261 260 258 257 256 256 255 253 253 253 252 253 251 252 253 254 256 256 257 257 259 261 261 262 262 263 265 267 268 269 269 269 269 270 270 271 273
270 268 267 266 266 265 262 260 260 260 257 258 257 255 255 254 254 254 254 254 254 254 255 256 257 256 257 259 260 260 262 265 267 267 268 268 269 269 269 269 269 270 273
271 269 267 266 265 264 261 259 260 262 261 260 258 258 258 258 258 257 257 256 256 256 258 259 260 259 260 260 260 262 264 265 266 266 266 267 268 269 269 268 269 270 273
270 268 266 265 264 263 262 261 261 262 263 263 262 262 261 261 260 259 258 258 258 259 260 260 260 261 260 259 261 262 264 264 264 265 266 267 267 269 269 268 268 269 273
272 268 265 265 265 265 265 262 262 261 262 263 263 263 263 262 261 260 260 260 260 260 260 260 260 259 259 260 261 262 262 262 262 263 265 266 268 270 270 269 268 269 272
Height
5690 5691 5694 5697 5699 5702 5705 5708 5711 5714 5716 5719 5722 5725 5729 5732 5736 5739 5742 5744 5746 5748 5750 5752 5753 5755 5756 5758 5760 5761 5762 5764 5765 5766 5767 5767 5768 5768 5769 5769 5769 5769 5768
5678 5680 5682 5685 5688 5691 5694 5697 5700 5702 5705 5708 5711 5714 5717 5721 5724 5728 5730 5733 5735 5737 5740 5742 5744 5745 5747 5749 5750 5752 5753 5755 5756 5757 5758 5759 5760 5760 5761 5761 5761 5761 5760
5666 5668 5670 5673 5676 5680 5683 5686 5689 5691 5694 5697 5700 5703 5706 5709 5712 5716 5719 5722 5725 5727 5729 5732 5734 5735 5737 5739 5741 5743 5744 5746 5747 5748 5750 5750 5751 5752 5753 5753 5753 5752 5752
5654 5656 5658 5661 5664 5668 5671 5674 5677 5680 5683 5686 5689 5692 5695 5699 5702 5705 5708 5711 5713 5716 5718 5721 5723 5725 5727 5729 5731 5732 5735 5736 5738 5739 5741 5742 5742 5743 5744 5744 5744 5743 5743
5641 5644 5646 5649 5652 5655 5659 5663 5666 5669 5671 5675 5678 5681 5684 5688 5691 5693 5696 5699 5702 5704 5707 5710 5712 5714 5716 5718 5720 5722 5725 5727 5728 5730 5731 5732 5733 5733 5734 5735 5735 5734 5733
5629 5631 5634 5636 5640 5643 5647 5651 5654 5657 5660 5664 5667 5670 5673 5676 5679 5682 5685 5688 5691 5693 5695 5698 5700 5702 5705 5707 5710 5712 5714 5716 5718 5720 5722 5723 5723 5724 5724 5724 5725 5724 5724
5616 5619 5622 5625 5628 5632 5636 5640 5643 5646 5649 5652 5656 5659 5662 5665 5668 5671 5674 5677 5680 5682 5684 5687 5689 5691 5693 5696 5698 5700 5703 5705 5708 5710 5712 5713 5714 5714 5714 5713 5713 5714 5713
5604 5607 5610 5614 5618 5622 5625 5628 5632 5635 5638 5641 5644 5647 5651 5654 5657 5660 5663 5666 5669 5671 5673 5675 5677 5679 5682 5684 5687 5689 5692 5694 5697 5699 5701 5702 5703 5703 5703 5703 5702 5702 5702
5593 5596 5599 5603 5608 5612 5615 5618 5621 5624 5627 5630 5634 5637 5640 5643 5646 5650 5653 5656 5659 5661 5663 5664 5666 5669 5671 5673 5676 5678 5680 5683 5685 5688 5690 5691 5692 5692 5692 5692 5691 5690 5690
5585 5587 5590 5594 5598 5602 5605 5608 5611 5614 5617 5620 5623 5626 5629 5632 5636 5639 5642 5645 5648 5650 5653 5654 5656 5658 5661 5663 5665 5667 5669 5672 5674 5677 5679 5680 5680 5681 5681 5681 5680 5679 5678
5579 5580 5583 5585 5589 5592 5595 5598 5601 5604 5607 5610 5613 5616 5619 5622 5625 5628 5631 5634 5637 5640 5642 5644 5646 5648 5650 5652 5655 5657 5659 5661 5663 5665 5667 5668 5669 5669 5669 5669 5669 5667 5666
5573 5574 5576 5578 5580 5582 5585 5588 5591 5594 5597 5600 5603 5606 5608 5610 5613 5617 5620 5623 5626 5629 5631 5634 5636 5638 5640 5642 5644 5646 5648 5651 5653 5654 5655 5656 5657 5658 5658 5657 5656 5655 5653
5566 5567 5569 5570 5572 5574 5575 5578 5581 5584 5587 5590 5592 5595 5598 5600 5603 5606 5609 5612 5616 5619 5621 5624 5626 5628 5630 5632 5634 5636 5638 5640 5641 5642 5643 5644 5645 5645 5645 5645 5644 5642 5641
5560 5561 5562 5563 5564 5565 5567 5569 5571 5574 5577 5580 5582 5585 5587 5590 5593 5596 5599 5602 5606 5608 5611 5614 5616 5619 5620 5622 5624 5625 5627 5629 5630 5631 5632 5632 5633 5633 5633 5633 5632 5630 5629
5554 5554 5555 5556 5556 5557 5558 5560 5562 5564 5567 5569 5572 5574 5577 5580 5583 5586 5589 5592 5595 5598 5601 5604 5606 5608 5610 5612 5613 5615 5617 5618 5619 5620 5620 5621 5621 5621 5621 5620 5619 5618 5617
5547 5548 5548 5548 5548 5549 5550 5551 5552 5554 5557 5559 5562 5564 5567 5570 5572 5576 5579 5582 5585 5588 5591 5594 5596 5598 5600 5602 5603 5604 5605 5606 5608 5609 5609 5609 5609 5609 5609 5608 5607 5606 5605
5541 5540 5540 5540 5540 5540 5541 5542 5543 5545 5547 5550 5552 5554 5557 5559 5562 5565 5568 5572 5575 5578 5580 5583 5585 5587 5589 5591 5592 5593 5594 5595 5596 5597 5597 5598 5597 5597 5597 5596 5596 5594 5593
5533 5533 5533 5533 5533 5533 5533 5533 5534 5535 5538 5540 5542 5544 5546 5549 5552 5554 5558 5561 5564 5567 5570 5572 5574 5576 5578 5580 5581 5582 5583 5584 5585 5585 5586 5586 5586 5586 5586 5585 5584 5583 5582
5527 5526 5526 5526 5526 5526 5525 5525 5526 5527 5529 5531 5532 5534 5536 5539 5541 5544 5547 5549 5552 5556 5558 5561 5563 5565 5567 5569 5570 5571 5572 5573 5574 5574 5574 5575 5575 5575 5574 5573 5573 5572 5571
5520 5520 5519 5519 5519 5519 5518 5518 5519 5520 5521 5522 5524 5525 5527 5529 5531 5534 5536 5539 5542 5544 5547 5550 5552 5554 5556 5558 5559 5560 5561 5562 5563 5563 5564 5564 5563 5563 5562 5562 5561 5561 5560
5514 5513 5513 5512 5512 5512 5512 5512 5512 5513 5514 5514 5515 5517 5518 5520 5522 5524 5527 5529 5531 5534 5537 5539 5541 5543 5545 5547 5548 5549 5550 5551 5552 5553 5553 5553 5552 5551 5551 5551 5551 5550 5549
5508 5507 5506 5506 5505 5505 5505 5505 5505 5506 5506 5507 5508 5509 5510 5512 5514 5515 5517 5519 5522 5524 5526 5528 5530 5532 5534 5535 5536 5538 5539 5540 5541 5542 5542 5542 5541 5541 5540 5540 5540 5540 5539
5501 5500 5499 5499 5498 5497 5497 5498 5498 5498 5499 5500 5500 5501 5502 5503 5505 5506 5508 5510 5511 5513 5515 5517 5519 5521 5523 5524 5525 5527 5528 5529 5531 5531 5531 5531 5531 5530 5530 5530 5530 5529 5529
5493 5492 5492 5491 5491 5490 5490 5490 5491 5491 5491 5492 5493 5494 5494 5495 5496 5497 5498 5500 5501 5503 5504 5506 5508 5510 5512 5514 5515 5517 5518 5519 5520 5521 5521 5521 5521 5520 5520 5520 5520 5520 5519
5485 5485 5484 5484 5483 5482 5483 5483 5483 5483 5484 5485 5485 5486 5487 5487 5488 5489 5490 5491 5492 5493 5495 5497 5498 5500 5502 5504 5505 5506 5508 5509 5510 5510 5511 5511 5511 5511 5511 5510 5510 5510 5509
5478 5478 5477 5477 5476 5476 5476 5476 5476 5476 5477 5478 5478 5479 5479 5479 5480 5481 5482 5482 5483 5484 5485 5487 5489 5490 5492 5494 5495 5497 5498 5499 5500 5501 5502 5502 5502 5502 5501 5500 5500 5500 5500